DW9711 Weather Reports


Display with metric or nautical units.
time (UTC)temp
F
wind
direction
speed
MPH
gust
MPH
rain 1hr
in
rain 24hr
in
rain mn
in
humidity
%
barometer
mb
20260905054615 79 69 0.0 0.0 0.00 0.00 0.00 85 1011.2
20260905054040 80 69 0.0 0.0 0.00 0.00 0.00 84 1011.2
20260905053544 80 69 0.0 0.0 0.00 0.00 0.00 84 1011.2
20260905053043 80 69 0.0 0.0 0.00 0.00 0.00 84 1011.3
20260905052539 80 69 0.0 0.0 0.00 0.00 0.00 84 1011.3
20260905052038 80 69 0.0 0.0 0.00 0.00 0.00 83 1011.4
20260905051538 80 69 0.0 0.0 0.00 0.00 0.00 83 1011.3
20260905051037 80 69 0.0 0.0 0.00 0.00 0.00 83 1011.2
20260905050536 80 69 0.0 0.0 0.00 0.00 0.00 83 1011.3
20260905050034 80 69 0.0 0.0 0.00 0.00 0.00 83 1011.3
20260905045536 81 69 0.0 0.0 0.00 0.00 0.00 83 1011.2
20260905045034 81 69 0.0 0.0 0.00 0.00 0.00 83 1011.2
20260905023530 84 69 0.0 0.0 0.00 0.00 0.00 77 1011.5
20260905023031 84 69 0.0 0.0 0.00 0.00 0.00 76 1011.5
20260905022530 85 69 0.0 0.0 0.00 0.00 0.00 75 1011.5
20260905022033 85 69 0.0 0.0 0.00 0.00 0.00 75 1011.5
20260905021530 85 69 0.0 0.0 0.00 0.00 0.00 76 1011.5
20260905021029 85 69 0.0 0.0 0.00 0.00 0.00 75 1011.5
20260905020534 85 69 0.0 0.0 0.00 0.00 0.00 74 1011.4
20260905020029 85 69 0.0 0.0 0.00 0.00 0.00 73 1011.3
20260905015530 85 69 0.0 0.0 0.00 0.00 0.00 74 1011.3
20260905015030 86 69 0.0 0.0 0.00 0.00 0.00 73 1011.3
20260905014529 86 69 0.0 0.0 0.00 0.00 0.00 72 1011.3
20260905014029 86 69 0.0 0.0 0.00 0.00 0.00 72 1011.2
20260905013529 87 69 0.0 0.0 0.00 0.00 0.00 70 1011.2
20260905013029 87 69 0.0 0.0 0.00 0.00 0.00 71 1011.1
20260905012532 87 69 0.0 0.0 0.00 0.00 0.00 71 1011.0
20260905012029 87 69 0.0 0.0 0.00 0.00 0.00 70 1010.9
20260905011528 87 69 0.0 0.0 0.00 0.00 0.00 70 1011.0
20260905011028 88 69 0.0 0.0 0.00 0.00 0.00 70 1010.9
20260905010528 88 69 0.0 0.0 0.00 0.00 0.00 69 1010.8
20260905010036 88 69 0.0 0.0 0.00 0.00 0.00 70 1010.7
20260905005530 88 69 0.0 0.0 0.00 0.00 0.00 69 1010.7
20260905005027 89 69 0.0 0.0 0.00 0.00 0.00 69 1010.7
20260905004527 89 69 0.0 0.0 0.00 0.00 0.00 69 1010.7
20260905004026 90 69 0.0 0.0 0.00 0.00 0.00 69 1010.7
20260905003530 90 69 0.0 0.0 0.00 0.00 0.00 69 1010.7
20260905003027 90 69 0.0 0.0 0.00 0.00 0.00 68 1010.7
20260905002528 91 69 0.0 0.0 0.00 0.00 0.00 66 1010.7
20260905002026 91 69 0.0 0.0 0.00 0.00 0.00 67 1010.6
20260905001525 92 69 0.0 0.0 0.00 0.00 0.00 64 1010.7
20260905001025 92 69 0.0 0.0 0.00 0.00 0.00 64 1010.6
20260905000527 93 69 0.0 0.0 0.00 0.00 0.00 63 1010.5
20260905000032 93 69 0.0 0.0 0.00 0.00 0.00 64 1010.6
20260904235524 94 69 0.0 0.0 0.00 0.00 0.00 63 1010.6
20260904235025 94 69 0.0 0.0 0.00 0.00 0.00 62 1010.6
20260904234524 94 69 0.0 0.0 0.00 0.00 0.00 60 1010.6
20260904234026 95 69 0.0 0.0 0.00 0.00 0.00 57 1010.5
20260904233524 95 69 0.0 0.0 0.00 0.00 0.00 56 1010.5
20260904233025 95 69 0.0 0.0 0.00 0.00 0.00 55 1010.5
20260904232524 95 69 0.0 0.0 0.00 0.00 0.00 54 1010.5
20260904232023 95 69 0.0 0.0 0.00 0.00 0.00 55 1010.5
20260904231523 96 69 0.0 0.0 0.00 0.00 0.00 54 1010.5
20260904231023 96 69 0.0 0.0 0.00 0.00 0.00 54 1010.5
20260904230524 96 69 0.0 0.0 0.00 0.00 0.00 52 1010.5
20260904230023 96 69 0.0 0.0 0.00 0.00 0.00 51 1010.4
20260904225522 96 69 0.0 0.0 0.00 0.00 0.00 51 1010.5
20260904225023 97 69 0.0 0.0 0.00 0.00 0.00 51 1010.6
20260904224523 97 69 0.0 0.0 0.00 0.00 0.00 50 1010.4
20260904224023 97 69 0.0 0.0 0.00 0.00 0.00 51 1010.4
20260904223524 97 69 0.0 0.0 0.00 0.00 0.00 53 1010.4
20260904223021 97 69 0.0 0.0 0.00 0.00 0.00 53 1010.5
20260904222526 97 68 0.0 0.0 0.00 0.00 0.00 50 1010.5
20260904222021 97 69 0.0 2.0 0.00 0.00 0.00 51 1010.5
20260904221522 97 69 0.0 4.0 0.00 0.00 0.00 50 1010.5
20260904221022 98 68 1.0 4.0 0.00 0.00 0.00 49 1010.5
20260904220521 98 138 0.0 3.0 0.00 0.00 0.00 50 1010.5
20260904220021 98 139 0.0 3.0 0.00 0.00 0.00 50 1010.6
20260904215520 98 154 0.0 2.0 0.00 0.00 0.00 51 1010.6
20260904215024 98 155 0.0 3.0 0.00 0.00 0.00 47 1010.5
20260904214521 98 155 0.0 3.0 0.00 0.00 0.00 49 1010.5
20260904214020 98 157 1.0 3.0 0.00 0.00 0.00 49 1010.5
20260904213523 98 196 0.0 2.0 0.00 0.00 0.00 49 1010.5
20260904213020 98 196 0.0 2.0 0.00 0.00 0.00 48 1010.5
20260904212520 98 196 0.0 2.0 0.00 0.00 0.00 49 1010.6
20260904212019 98 196 0.0 4.0 0.00 0.00 0.00 51 1010.7
20260904211517 98 196 1.0 4.0 0.00 0.00 0.00 49 1010.8
20260904211017 98 197 0.0 3.0 0.00 0.00 0.00 52 1010.8
20260904210516 98 196 1.0 4.0 0.00 0.00 0.00 53 1011.0
20260904210019 98 197 1.0 4.0 0.00 0.00 0.00 53 1011.1
20260904205514 98 145 0.0 0.0 0.00 0.00 0.00 52 1011.2
20260904205013 98 117 0.0 0.0 0.00 0.00 0.00 52 1011.3
20260904204513 98 122 0.0 0.0 0.00 0.00 0.00 52 1011.3
20260904204014 98 119 0.0 7.0 0.00 0.00 0.00 50 1011.3
20260904203511 98 119 0.0 7.0 0.00 0.00 0.00 50 1011.4
20260904203013 98 89 0.0 0.0 0.00 0.00 0.00 48 1011.5
20260904202511 98 96 0.0 0.0 0.00 0.00 0.00 48 1011.5
20260904202014 98 96 0.0 0.0 0.00 0.00 0.00 47 1011.6
20260904201510 98 90 0.0 0.0 0.00 0.00 0.00 51 1011.6
20260904201010 98 90 0.0 0.0 0.00 0.00 0.00 49 1011.8
20260904200509 98 90 0.0 0.0 0.00 0.00 0.00 49 1011.8
20260904200009 98 90 0.0 0.0 0.00 0.00 0.00 49 1011.9
20260904195513 98 98 0.0 0.0 0.00 0.00 0.00 49 1012.0
20260904195010 98 57 0.0 5.0 0.00 0.00 0.00 47 1012.0
20260904194510 98 61 0.0 5.0 0.00 0.00 0.00 49 1012.1
20260904194008 98 83 0.0 3.0 0.00 0.00 0.00 48 1012.1
20260904193508 98 80 0.0 3.0 0.00 0.00 0.00 47 1012.1
20260904193010 98 144 0.0 3.0 0.00 0.00 0.00 48 1012.2
20260904192507 98 115 0.0 0.0 0.00 0.00 0.00 47 1012.3
20260904192008 98 84 0.0 0.0 0.00 0.00 0.00 50 1012.4
20260904191506 98 339 0.0 0.0 0.00 0.00 0.00 48 1012.5
20260904191006 98 339 0.0 0.0 0.00 0.00 0.00 46 1012.5
20260904190507 99 340 0.0 0.0 0.00 0.00 0.00 45 1012.5
20260904190005 99 333 0.0 0.0 0.00 0.00 0.00 47 1012.6
20260904185504 98 229 0.0 0.0 0.00 0.00 0.00 48 1012.6
20260904185004 98 331 0.0 0.0 0.00 0.00 0.00 47 1012.7
20260904184504 98 85 0.0 0.0 0.00 0.00 0.00 48 1012.8
20260904184004 98 84 0.0 0.0 0.00 0.00 0.00 48 1012.7
20260904183503 98 13 0.0 0.0 0.00 0.00 0.00 49 1012.8
20260904183005 98 13 0.0 0.0 0.00 0.00 0.00 48 1012.9
20260904182504 98 104 0.0 0.0 0.00 0.00 0.00 49 1013.0
20260904182003 98 28 0.0 0.0 0.00 0.00 0.00 50 1012.9
20260904181503 98 27 0.0 0.0 0.00 0.00 0.00 46 1013.0
20260904181003 98 27 0.0 0.0 0.00 0.00 0.00 48 1013.0
20260904180501 97 317 0.0 0.0 0.00 0.00 0.00 49 1013.0
20260904180001 97 328 0.0 0.0 0.00 0.00 0.00 48 1013.1
20260904175600 98 328 0.0 0.0 0.00 0.00 0.00 49 1013.1
20260904175059 98 355 0.0 0.0 0.00 0.00 0.00 51 1013.1
20260904174558 97 289 0.0 0.0 0.00 0.00 0.00 51 1013.1
20260904174056 96 293 0.0 0.0 0.00 0.00 0.00 52 1013.2
20260904173555 96 293 0.0 0.0 0.00 0.00 0.00 52 1013.3
20260904173105 96 233 0.0 1.0 0.00 0.00 0.00 52 1013.3
20260904172554 96 296 0.0 3.0 0.00 0.00 0.00 52 1013.4
20260904172053 96 295 0.0 3.0 0.00 0.00 0.00 51 1013.5
20260904171552 96 297 0.0 4.0 0.00 0.00 0.00 53 1013.5
20260904171051 95 297 0.0 4.0 0.00 0.00 0.00 54 1013.5
20260904170549 95 292 0.0 4.0 0.00 0.00 0.00 55 1013.5
20260904170049 95 290 1.0 4.0 0.00 0.00 0.00 56 1013.6
20260904165547 95 289 0.0 4.0 0.00 0.00 0.00 57 1013.6
20260904165045 95 282 0.0 0.0 0.00 0.00 0.00 56 1013.7
20260904164544 95 282 0.0 1.0 0.00 0.00 0.00 58 1013.7
20260904164045 94 281 0.0 1.0 0.00 0.00 0.00 57 1013.7
20260904163543 94 258 0.0 0.0 0.00 0.00 0.00 59 1013.7
20260904163042 94 258 0.0 3.0 0.00 0.00 0.00 61 1013.8
20260904162540 93 258 0.0 4.0 0.00 0.00 0.00 61 1013.8
20260904162039 93 240 0.0 3.0 0.00 0.00 0.00 61 1013.9
20260904161538 93 240 0.0 3.0 0.00 0.00 0.00 61 1013.7
20260904161040 93 179 1.0 6.0 0.00 0.00 0.00 60 1013.7
20260904160535 93 317 0.0 6.0 0.00 0.00 0.00 63 1013.7
20260904160044 92 320 0.0 6.0 0.00 0.00 0.00 62 1013.8
20260904155532 92 318 1.0 4.0 0.00 0.00 0.00 62 1013.8
20260904155030 92 323 0.0 2.0 0.00 0.00 0.00 63 1013.9
20260904154530 91 323 0.0 6.0 0.00 0.00 0.00 66 1013.8
20260904154028 91 325 0.0 6.0 0.00 0.00 0.00 67 1013.8
20260904153527 91 288 1.0 4.0 0.00 0.00 0.00 67 1013.9
20260904153026 91 275 0.0 4.0 0.00 0.00 0.00 67 1013.9
20260904152524 90 272 0.0 5.0 0.00 0.00 0.00 67 1013.9
20260904152023 90 272 0.0 5.0 0.00 0.00 0.00 67 1014.0
20260904151521 90 279 0.0 4.0 0.00 0.00 0.00 68 1013.9
20260904151020 89 294 1.0 4.0 0.00 0.00 0.00 68 1013.9
20260904150519 90 273 2.0 4.0 0.00 0.00 0.00 67 1013.9
20260904150018 89 228 0.0 2.0 0.00 0.00 0.00 70 1013.8
20260904145517 89 228 0.0 2.0 0.00 0.00 0.00 71 1013.8
20260904145015 88 227 0.0 3.0 0.00 0.00 0.00 71 1013.7
20260904144515 88 227 0.0 3.0 0.00 0.00 0.00 72 1013.6
20260904144012 88 227 0.0 3.0 0.00 0.00 0.00 71 1013.6
20260904143511 87 198 0.0 2.0 0.00 0.00 0.00 72 1013.6
20260904143010 87 198 0.0 4.0 0.00 0.00 0.00 72 1013.5
20260904142508 87 198 1.0 5.0 0.00 0.00 0.00 71 1013.6
20260904142008 86 197 1.0 5.0 0.00 0.00 0.00 72 1013.6
20260904141606 86 194 0.0 4.0 0.00 0.00 0.00 74 1013.5
20260904141004 86 190 0.0 1.0 0.00 0.00 0.00 76 1013.5
20260904140502 85 190 0.0 0.0 0.00 0.00 0.00 76 1013.6
20260904140001 85 190 0.0 3.0 0.00 0.00 0.00 77 1013.5
20260904135600 84 190 1.0 3.0 0.00 0.00 0.00 77 1013.5
20260904135059 84 191 1.0 4.0 0.00 0.00 0.00 77 1013.5
20260904134613 84 197 0.0 4.0 0.00 0.00 0.00 77 1013.5
20260904134055 83 182 0.0 3.0 0.00 0.00 0.00 78 1013.4
20260904133554 83 182 0.0 3.0 0.00 0.00 0.00 79 1013.4
20260904133055 83 115 0.0 2.0 0.00 0.00 0.00 79 1013.5
20260904132552 82 115 0.0 2.0 0.00 0.00 0.00 81 1013.5
20260904132050 82 114 0.0 1.0 0.00 0.00 0.00 81 1013.5
20260904131549 81 114 0.0 1.0 0.00 0.00 0.00 82 1013.5
20260904131047 81 114 0.0 1.0 0.00 0.00 0.00 83 1013.5
20260904130546 80 114 0.0 2.0 0.00 0.00 0.00 84 1013.5
20260904130046 80 114 0.0 2.0 0.00 0.00 0.00 84 1013.5
20260904125547 79 114 0.0 2.0 0.00 0.00 0.00 84 1013.5
20260904125044 79 113 0.0 1.0 0.00 0.00 0.00 85 1013.4
20260904124541 79 113 0.0 1.0 0.00 0.00 0.00 85 1013.4
20260904124040 78 113 0.0 0.0 0.00 0.00 0.00 87 1013.4
20260904123538 78 113 0.0 0.0 0.00 0.00 0.00 88 1013.4
20260904123037 77 113 0.0 0.0 0.00 0.00 0.00 88 1013.4
20260904122536 77 113 0.0 0.0 0.00 0.00 0.00 89 1013.3
20260904122037 77 113 0.0 0.0 0.00 0.00 0.00 89 1013.2
20260904121542 76 192 0.0 0.0 0.00 0.00 0.00 89 1013.2
20260904121033 76 192 0.0 0.0 0.00 0.00 0.00 89 1013.1
20260904120536 76 192 0.0 0.0 0.00 0.00 0.00 88 1013.0
20260904120036 76 192 0.0 0.0 0.00 0.00 0.00 89 1013.0
20260904115535 76 192 0.0 0.0 0.00 0.00 0.00 89 1013.0
20260904115031 76 192 0.0 0.0 0.00 0.00 0.00 89 1013.0
20260904114530 76 192 0.0 0.0 0.00 0.00 0.00 89 1012.9
20260904114033 76 192 0.0 0.0 0.00 0.00 0.00 89 1012.8
20260904113528 76 192 0.0 0.0 0.00 0.00 0.00 89 1012.8
20260904113027 76 192 0.0 0.0 0.00 0.00 0.00 88 1012.8
20260904112526 76 192 0.0 0.0 0.00 0.00 0.00 88 1012.7
20260904112026 76 192 0.0 0.0 0.00 0.00 0.00 87 1012.6
20260904111525 76 192 0.0 0.0 0.00 0.00 0.00 86 1012.7
20260904111024 77 192 0.0 0.0 0.00 0.00 0.00 86 1012.6
20260904110524 77 192 0.0 0.0 0.00 0.00 0.00 86 1012.6
20260904110022 77 192 0.0 0.0 0.00 0.00 0.00 85 1012.5
20260904105525 77 192 0.0 0.0 0.00 0.00 0.00 85 1012.4
20260904105021 78 192 0.0 0.0 0.00 0.00 0.00 85 1012.4
20260904104521 78 192 0.0 0.0 0.00 0.00 0.00 86 1012.3